When you browse on this site, cookies collect data to enhance your experience and personalize the content and advertising you see.
Visit our Privacy Policy to learn more. By continuing to use the site, you agree to this use of cookies and data.

Hourly Weather Cesky Tesin

Today, 7 August, Friday

Time Temperature Precipitation Wind Pressure Humidity
00:00 +20°C° 0 mm 1 mps 739 mmHg 90%
01:00 +20°C° 0 mm 1 mps 740 mmHg 91%
02:00 +19°C° 0 mm 1 mps 739 mmHg 91%
03:00 +19°C° 0 mm 1 mps 739 mmHg 91%
04:00 +17°C° 0 mm 0 mps 739 mmHg 91%
05:00 +20°C° 0 mm 1 mps 739 mmHg 88%
06:00 +21°C° 0 mm 1 mps 740 mmHg 85%
07:00 +23°C° 0 mm 1 mps 740 mmHg 82%
08:00 +25°C° 0 mm 1 mps 740 mmHg 72%
09:00 +27°C° 0 mm 2 mps 740 mmHg 63%
10:00 +29°C° 0 mm 3 mps 740 mmHg 53%
11:00 +30°C° 0 mm 3 mps 740 mmHg 50%
12:00 +30°C° 0 mm 4 mps 740 mmHg 48%
13:00 +32°C° 0 mm 4 mps 740 mmHg 45%
14:00 +32°C° 0 mm 4 mps 740 mmHg 48%
15:00 +30°C° 0 mm 4 mps 739 mmHg 50%
16:00 +30°C° 0 mm 4 mps 739 mmHg 52%
17:00 +28°C° 0 mm 3 mps 739 mmHg 59%
18:00 +26°C° 0 mm 3 mps 739 mmHg 65%
19:00 +24°C° 0 mm 2 mps 739 mmHg 72%
20:00 +24°C° 0 mm 2 mps 739 mmHg 75%
21:00 +23°C° 0 mm 2 mps 739 mmHg 77%
22:00 +21°C° 0 mm 2 mps 739 mmHg 80%
23:00 +21°C° 0 mm 1 mps 739 mmHg 82%

Tomorrow, 8 August, Saturday

Time Temperature Precipitation Wind Pressure Humidity
00:00 +21°C° 0 mm 1 mps 739 mmHg 83%
01:00 +20°C° 0 mm 1 mps 739 mmHg 85%
02:00 +20°C° 0 mm 1 mps 739 mmHg 86%
03:00 +20°C° 0 mm 1 mps 739 mmHg 87%
04:00 +19°C° 0 mm 1 mps 739 mmHg 88%
05:00 +21°C° 0 mm 1 mps 739 mmHg 84%
06:00 +22°C° 0 mm 1 mps 739 mmHg 79%
07:00 +24°C° 0 mm 1 mps 739 mmHg 75%
08:00 +25°C° 0 mm 1 mps 739 mmHg 68%
09:00 +27°C° 0 mm 2 mps 739 mmHg 62%
10:00 +29°C° 0 mm 2 mps 739 mmHg 56%
11:00 +30°C° 0 mm 2 mps 739 mmHg 53%
12:00 +30°C° 0 mm 3 mps 739 mmHg 51%
13:00 +31°C° 0 mm 3 mps 738 mmHg 48%
14:00 +31°C° 0.1 mm 3 mps 738 mmHg 49%
15:00 +30°C° 0.1 mm 3 mps 738 mmHg 50%
16:00 +30°C° 0.1 mm 3 mps 738 mmHg 51%
17:00 +28°C° 0 mm 2 mps 738 mmHg 58%
18:00 +27°C° 0 mm 2 mps 737 mmHg 65%
19:00 +25°C° 0 mm 1 mps 737 mmHg 72%
20:00 +24°C° 0 mm 1 mps 737 mmHg 75%
21:00 +23°C° 0 mm 1 mps 738 mmHg 78%
22:00 +23°C° 0 mm 1 mps 738 mmHg 81%
23:00 +22°C° 0 mm 1 mps 737 mmHg 84%

Day after tomorrow, 9 August, Sunday

Time Temperature Precipitation Wind Pressure Humidity
00:00 +22°C° 0 mm 1 mps 737 mmHg 86%
01:00 +21°C° 0 mm 1 mps 737 mmHg 88%
02:00 +21°C° 0 mm 1 mps 737 mmHg 89%
03:00 +21°C° 0 mm 1 mps 737 mmHg 91%
04:00 +20°C° 0 mm 1 mps 737 mmHg 92%
05:00 +21°C° 0 mm 1 mps 737 mmHg 89%
06:00 +22°C° 0 mm 1 mps 737 mmHg 85%
07:00 +24°C° 0 mm 2 mps 737 mmHg 82%
08:00 +25°C° 0 mm 2 mps 737 mmHg 74%
09:00 +27°C° 0 mm 3 mps 737 mmHg 67%
10:00 +28°C° 0 mm 3 mps 738 mmHg 59%
11:00 +29°C° 0 mm 3 mps 737 mmHg 56%
12:00 +30°C° 0 mm 3 mps 737 mmHg 52%
13:00 +31°C° 0 mm 3 mps 737 mmHg 49%
14:00 +30°C° 0.1 mm 3 mps 737 mmHg 51%
15:00 +30°C° 0.1 mm 3 mps 737 mmHg 52%
16:00 +30°C° 0.1 mm 3 mps 736 mmHg 54%
17:00 +28°C° 0 mm 3 mps 736 mmHg 59%
18:00 +26°C° 0 mm 2 mps 736 mmHg 65%
19:00 +25°C° 0 mm 2 mps 736 mmHg 71%
20:00 +24°C° 0 mm 2 mps 736 mmHg 73%
21:00 +23°C° 0 mm 2 mps 736 mmHg 75%
22:00 +21°C° 0 mm 2 mps 736 mmHg 77%
23:00 +22°C° 0 mm 1 mps 736 mmHg 78%

10 August, Monday

Time Temperature Precipitation Wind Pressure Humidity
00:00 +21°C° 0 mm 1 mps 736 mmHg 80%
01:00 +21°C° 0 mm 1 mps 736 mmHg 82%
02:00 +20°C° 0 mm 1 mps 736 mmHg 83%
03:00 +20°C° 0 mm 1 mps 736 mmHg 84%
04:00 +20°C° 0 mm 1 mps 736 mmHg 85%
05:00 +21°C° 0 mm 1 mps 736 mmHg 82%
06:00 +22°C° 0 mm 1 mps 736 mmHg 78%
07:00 +23°C° 0 mm 1 mps 736 mmHg 74%
08:00 +25°C° 0 mm 1 mps 736 mmHg 68%
09:00 +27°C° 0 mm 2 mps 737 mmHg 61%
10:00 +29°C° 0 mm 2 mps 737 mmHg 55%
11:00 +29°C° 0 mm 2 mps 736 mmHg 53%
12:00 +30°C° 0 mm 3 mps 736 mmHg 51%
13:00 +31°C° 0 mm 3 mps 736 mmHg 49%
14:00 +30°C° 0.5 mm 3 mps 736 mmHg 52%
15:00 +30°C° 0.5 mm 2 mps 736 mmHg 55%
16:00 +29°C° 0.5 mm 2 mps 736 mmHg 59%
17:00 +28°C° 0.1 mm 2 mps 736 mmHg 64%
18:00 +26°C° 0.1 mm 2 mps 736 mmHg 69%
19:00 +25°C° 0.1 mm 2 mps 735 mmHg 74%
20:00 +24°C° 0 mm 2 mps 736 mmHg 76%
21:00 +23°C° 0 mm 1 mps 736 mmHg 77%
22:00 +22°C° 0 mm 1 mps 736 mmHg 79%
23:00 +22°C° 0 mm 1 mps 736 mmHg 80%

11 August, Tuesday

Time Temperature Precipitation Wind Pressure Humidity
00:00 +22°C° 0 mm 1 mps 736 mmHg 81%
01:00 +21°C° 0 mm 1 mps 736 mmHg 82%
02:00 +21°C° 0 mm 1 mps 736 mmHg 83%
03:00 +18°C° 0 mm 0 mps 736 mmHg 85%
04:00 +18°C° 0 mm 0 mps 735 mmHg 86%
05:00 +19°C° 0 mm 0 mps 736 mmHg 82%
06:00 +21°C° 0 mm 0 mps 736 mmHg 79%
07:00 +22°C° 0 mm 0 mps 736 mmHg 76%
08:00 +25°C° 0 mm 1 mps 736 mmHg 69%
09:00 +27°C° 0 mm 1 mps 736 mmHg 63%
10:00 +29°C° 0 mm 2 mps 736 mmHg 56%
11:00 +29°C° 0.2 mm 2 mps 736 mmHg 55%
12:00 +30°C° 0.2 mm 2 mps 736 mmHg 53%
13:00 +30°C° 0.2 mm 2 mps 736 mmHg 52%
14:00 +30°C° 0.8 mm 2 mps 736 mmHg 55%
15:00 +29°C° 0.8 mm 3 mps 736 mmHg 58%
16:00 +28°C° 0.8 mm 3 mps 735 mmHg 62%
17:00 +27°C° 0.9 mm 3 mps 735 mmHg 67%
18:00 +25°C° 0.9 mm 2 mps 735 mmHg 73%
19:00 +24°C° 0.9 mm 2 mps 735 mmHg 79%
20:00 +23°C° 0.1 mm 2 mps 735 mmHg 82%
21:00 +21°C° 0.1 mm 2 mps 736 mmHg 85%
22:00 +20°C° 0.1 mm 2 mps 736 mmHg 87%
23:00 +20°C° 0 mm 2 mps 736 mmHg 89%

12 August, Wednesday

Time Temperature Precipitation Wind Pressure Humidity
00:00 +19°C° 0 mm 2 mps 736 mmHg 90%
01:00 +19°C° 0 mm 2 mps 736 mmHg 92%
02:00 +18°C° 0 mm 2 mps 736 mmHg 93%
03:00 +18°C° 0 mm 2 mps 736 mmHg 94%
04:00 +18°C° 0 mm 2 mps 736 mmHg 94%
05:00 +18°C° 0 mm 2 mps 736 mmHg 92%
06:00 +19°C° 0 mm 2 mps 736 mmHg 90%
07:00 +20°C° 0 mm 2 mps 736 mmHg 88%
08:00 +21°C° 0 mm 2 mps 736 mmHg 82%
09:00 +22°C° 0 mm 3 mps 736 mmHg 76%
10:00 +24°C° 0 mm 3 mps 736 mmHg 70%
11:00 +25°C° 0 mm 3 mps 736 mmHg 64%
12:00 +26°C° 0 mm 3 mps 736 mmHg 59%
13:00 +27°C° 0 mm 3 mps 736 mmHg 54%
14:00 +27°C° 0 mm 3 mps 736 mmHg 54%
15:00 +27°C° 0 mm 4 mps 736 mmHg 54%
16:00 +27°C° 0 mm 4 mps 735 mmHg 55%
17:00 +25°C° 0 mm 3 mps 735 mmHg 62%
18:00 +24°C° 0 mm 3 mps 735 mmHg 68%
19:00 +21°C° 0 mm 3 mps 736 mmHg 75%
20:00 +20°C° 0 mm 3 mps 736 mmHg 77%
21:00 +19°C° 0 mm 3 mps 736 mmHg 78%
22:00 +18°C° 0 mm 2 mps 736 mmHg 80%
23:00 +18°C° 0 mm 2 mps 736 mmHg 81%
Show more